User: anonymous   Login
Location: Unspecified
(0.0000°N, 0.0000°E)
Time: 19:57:31
(UTC+00:00)
Language:

Jikiken - Orbit

View from above orbital plane
View from above orbital plane
View from above satellite
View from above satellite

Ground track
Ground track

The orbit data is extracted from the following two-line orbital elements,

1 11027U 78087A   17144.88385911 +.00510961 -13865-7 +38545-3 0  9992
2 11027 031.0965 013.3361 3074021 129.4537 262.0914 09.49541879438704
Epoch (UTC): 24 May 2017 21:12:45
Eccentricity: 0.3074021
inclination: 31.0965°
perigee height: 146 km
apogee height: 5938 km
right ascension of ascending node: 13.3361°
argument of perigee: 129.4537°
revolutions per day: 9.49541879
mean anomaly at epoch: 262.0914°
orbit number at epoch: 43870

The dashed part of the orbit path shows where the satellite is in the earth's shadow,  

DLR